This is the latest recevied weather packets stored in our database for station/object W5ITZ. If no packets are shown the sender has not sent any weather packets the latest 10 day(s).
| Time | Temp. | Humidity | Pressure | Rain* | Wind** | Luminosity | Snow |
|---|---|---|---|---|---|---|---|
| 1778199480 | 23.33° C | 81% | 1013.2 hPa | 0 mm | - | 9 W/m² | - |
| 1778199176 | 23.33° C | 80% | 1013.4 hPa | 0 mm | - | 11 W/m² | - |
| 1778198872 | 23.33° C | 79% | 1013.3 hPa | 0 mm | - | 10 W/m² | - |
| 1778198570 | 23.33° C | 79% | 1013.1 hPa | 0 mm | - | 12 W/m² | - |
| 1778198266 | 23.89° C | 79% | 1013.3 hPa | 0 mm | - | 14 W/m² | - |
| 1778197964 | 23.89° C | 78% | 1013 hPa | 0 mm | - | 21 W/m² | - |
| 1778197660 | 23.89° C | 78% | 1012.9 hPa | 0 mm | - | 22 W/m² | - |
| 1778197357 | 23.89° C | 77% | 1013 hPa | 0 mm | - | 24 W/m² | - |
| 1778197053 | 23.89° C | 77% | 1013.1 hPa | 0 mm | - | 22 W/m² | - |
| 1778196751 | 23.89° C | 77% | 1013.3 hPa | 0 mm | - | 25 W/m² | - |
| 1778196448 | 23.33° C | 77% | 1013.2 hPa | 0 mm | - | 31 W/m² | - |
| 1778196145 | 23.33° C | 77% | 1013.3 hPa | 0 mm | - | 42 W/m² | - |
| 1778195842 | 23.33° C | 77% | 1013.1 hPa | 0 mm | - | 42 W/m² | - |
| 1778195539 | 23.33° C | 77% | 1013.2 hPa | 0 mm | - | 33 W/m² | - |
| 1778195236 | 23.33° C | 76% | 1013.4 hPa | 0 mm | - | 29 W/m² | - |
| 1778194933 | 23.33° C | 76% | 1013.4 hPa | 0 mm | - | 28 W/m² | - |
| 1778194632 | 23.33° C | 76% | 1013.2 hPa | 0 mm | - | 30 W/m² | - |
| 1778194329 | 23.89° C | 76% | 1013.2 hPa | 0 mm | - | 32 W/m² | - |
| 1778194025 | 23.89° C | 75% | 1013.4 hPa | 0 mm | - | 42 W/m² | - |
| 1778193721 | 23.89° C | 75% | 1013.5 hPa | 0 mm | - | 62 W/m² | - |
| 1778193418 | 23.89° C | 75% | 1013 hPa | 0 mm | - | 74 W/m² | - |
| 1778193115 | 23.89° C | 75% | 1013.2 hPa | 0 mm | - | 74 W/m² | - |
| 1778192812 | 23.33° C | 76% | 1013 hPa | 0 mm | - | 100 W/m² | - |
| 1778192508 | 23.33° C | 76% | 1012.9 hPa | 0 mm | - | 101 W/m² | - |
| 1778192204 | 23.33° C | 76% | 1012.9 hPa | 0 mm | - | 85 W/m² | - |
* Rain latest hour (hover to see other rain measurements)
** Current wind speed in m/s (hover to see current wind gust speed)